Location: Bush Observatory
(40.2653°N, 94.3194°W)
Time: 13:57:33
(UTC-06:00)

Iridium 13 - Visible Passes

Search period start: 25 February 2018 00:00
Search period end: 07 March 2018 00:00
Orbit: 776 x 779 km, 86.4° (Epoch: 24 February)

Date Brightness Start Highest point End Pass type
(mag) Time Alt. Az. Time Alt. Az. Time Alt. Az.
25 Feb 6.0 06:05:35 10° S 06:10:43 66° E 06:15:55 10° N visible
26 Feb 7.3 05:32:39 10° SSE 05:37:20 35° E 05:42:03 10° NNE visible
26 Feb 9.0 19:27:03 10° WNW 19:28:10 11° WNW 19:29:18 10° W visible
27 Feb 8.3 05:00:26 10° SE 05:04:04 19° E 05:07:43 10° NE visible
27 Feb 8.5 18:51:16 10° NW 18:55:01 20° W 18:58:46 10° SW visible
28 Feb 9.0 04:30:29 10° E 04:30:56 10° ENE 04:31:24 10° ENE visible
28 Feb 5.5 06:05:36 10° S 06:10:48 86° W 06:16:04 10° N visible
01 Mar 6.5 05:32:20 10° SSE 05:37:21 51° E 05:42:24 10° NNE visible
02 Mar 7.7 04:59:39 10° SE 05:04:01 28° E 05:08:23 10° NNE visible
02 Mar 8.7 18:52:18 10° NW 18:54:55 14° WNW 18:57:32 10° WSW visible
03 Mar 8.5 04:27:52 10° ESE 04:30:48 15° ENE 04:33:44 10° NE visible
03 Mar 5.6 06:05:49 10° SSW 06:10:56 59° W 06:16:06 10° N visible
04 Mar 5.7 05:32:13 10° S 05:37:25 75° E 05:42:38 10° N visible
05 Mar 6.9 04:59:11 10° SSE 05:03:59 40° E 05:08:51 10° NNE visible
06 Mar 8.0 04:26:47 10° SE 04:30:43 22° E 04:34:38 10° NNE visible
06 Mar 5.9 06:06:14 10° SSW 06:11:07 40° W 06:16:02 10° NNW visible
